Location: ??????
(55.7522°N, 37.6156°E)
Time: 18:20:12
(UTC+00:00)

Nimbus 7 Rocket - Pass Details

Date: 14 June 2025
Orbit: 921 x 963 km, 99.4° (Epoch: 12 July)

Event Time Altitude Azimuth Distance (km) Brightness Sun altitude
Rises 23:09:52 0° 17° (NNE) 3,588 9.8 -8.1°
Reaches altitude 10° 23:12:18 10° 16° (NNE) 2,645 8.5 -8.0°
Maximum altitude 23:18:13 82° 290° (WNW) 951 4.5 -7.7°
Drops below altitude 10° 23:24:09 10° 205° (SSW) 2,654 6.1 -7.3°
Enters shadow 23:24:26 - 204° (SSW) 2,764 6.2 -7.3°
